GOES 1 (SMS-C) 1 08366U 75100A 10065.77382443 -.00000164 +00000-0 +10000-3 0 01321 2 08366 014.2928 345.6764 0004371 312.5978 047.3659 01.00230237125589 GOES 2 1 10061U 77048A 10061.07708225 -.00000241 +00000-0 +10000-3 0 02011 2 10061 014.6848 354.1907 0017986 268.1035 091.6964 00.99402078064369 GOES 3 1 10953U 78062A 10067.09993660 -.00000097 +00000-0 +10000-3 0 08548 2 10953 014.4426 357.9149 0005494 357.7994 096.8664 01.00270719069310 GOES 6 1 14050U 83041A 10066.88080307 -.00000109 +00000-0 +10000-3 0 04386 2 14050 013.6445 017.0930 0003514 338.3361 021.6506 01.00217807156452 GOES 7 1 17561U 87022A 10067.21838523 +.00000055 +00000-0 +10000-3 0 03690 2 17561 012.5736 034.6085 0003060 140.1517 255.0808 01.00275914067561 GOES 8 1 23051U 94022A 10060.34660578 -.00000285 00000-0 10000-3 0 1592 2 23051 006.3864 070.0569 0007075 199.6508 160.5356 00.98907961 65268 GOES 9 1 23581U 95025A 10061.90873513 -.00000156 +00000-0 +10000-3 0 04389 2 23581 005.9455 067.4346 0004276 285.2879 074.8694 00.98800385053983 GOES 10 1 24786U 97019A 10066.19724110 +.00000043 +00000-0 +10000-3 0 03547 2 24786 004.1756 069.8394 0003534 013.3990 039.9603 00.99068939047139 GOES 11 1 26352U 00022A 10066.45773990 +.00000076 +00000-0 +10000-3 0 07365 2 26352 000.1713 086.4649 0001616 219.7845 247.9292 01.00269892036044 GOES 12 1 26871U 01031A 10065.09610576 -.00000265 00000-0 00000+0 0 4757 2 26871 000.3001 087.3478 0002892 307.9160 088.2192 01.00281207 31638 GOES 13 1 29155U 06018A 10064.39900162 -.00000158 00000-0 10000-3 0 11 2 29155 000.4049 265.5126 0001949 253.8719 047.8379 01.00405025 13870